• en Suisse
  • Liste des pays
  • À 7 jours
  • Température de l'eau
  • Carte satellitaire
  • Carte météo
  • Widgets météo
  • user-avatar
    Se connecter

    Météo par heure à Lesnaya

    Ce jour, 17 Août, Vendredi

    Heure Température Précipitation Vent Pression Humidité
    00:00 +15°C° 0 mm 2 m/s 762 mmHg 86%
    01:00 +15°C° 0 mm 2 m/s 762 mmHg 87%
    02:00 +15°C° 0 mm 2 m/s 762 mmHg 89%
    03:00 +14°C° 0 mm 2 m/s 762 mmHg 90%
    04:00 +14°C° 0 mm 2 m/s 763 mmHg 92%
    05:00 +14°C° 0 mm 2 m/s 763 mmHg 93%
    06:00 +16°C° 0 mm 2 m/s 763 mmHg 87%
    07:00 +17°C° 0 mm 2 m/s 763 mmHg 81%
    08:00 +19°C° 0 mm 2 m/s 763 mmHg 75%
    09:00 +20°C° 0 mm 2 m/s 763 mmHg 70%
    10:00 +22°C° 0 mm 3 m/s 762 mmHg 65%
    11:00 +24°C° 0 mm 3 m/s 762 mmHg 59%
    12:00 +25°C° 0 mm 3 m/s 762 mmHg 57%
    13:00 +25°C° 0 mm 3 m/s 762 mmHg 56%
    14:00 +26°C° 0 mm 3 m/s 762 mmHg 54%
    15:00 +26°C° 0 mm 3 m/s 761 mmHg 56%
    16:00 +26°C° 0 mm 2 m/s 761 mmHg 58%
    17:00 +25°C° 0 mm 2 m/s 761 mmHg 60%
    18:00 +24°C° 0 mm 2 m/s 761 mmHg 67%
    19:00 +21°C° 0 mm 2 m/s 761 mmHg 74%
    20:00 +19°C° 0 mm 2 m/s 761 mmHg 81%
    21:00 +19°C° 0 mm 2 m/s 761 mmHg 83%
    22:00 +18°C° 0 mm 2 m/s 761 mmHg 85%
    23:00 +17°C° 0 mm 2 m/s 761 mmHg 87%

    Demain, 18 Août, Samedi

    Heure Température Précipitation Vent Pression Humidité
    00:00 +17°C° 0 mm 2 m/s 761 mmHg 89%
    01:00 +17°C° 0 mm 2 m/s 761 mmHg 90%
    02:00 +16°C° 0 mm 2 m/s 761 mmHg 92%
    03:00 +16°C° 0 mm 2 m/s 761 mmHg 93%
    04:00 +16°C° 0 mm 2 m/s 761 mmHg 94%
    05:00 +16°C° 0 mm 2 m/s 761 mmHg 96%
    06:00 +17°C° 0 mm 2 m/s 760 mmHg 90%
    07:00 +19°C° 0 mm 3 m/s 760 mmHg 84%
    08:00 +21°C° 0 mm 3 m/s 760 mmHg 79%
    09:00 +22°C° 0,1 mm 3 m/s 760 mmHg 74%
    10:00 +25°C° 0,1 mm 3 m/s 760 mmHg 69%
    11:00 +26°C° 0,1 mm 3 m/s 760 mmHg 64%
    12:00 +26°C° 0,3 mm 3 m/s 759 mmHg 64%
    13:00 +27°C° 0,3 mm 3 m/s 759 mmHg 64%
    14:00 +27°C° 0,3 mm 3 m/s 759 mmHg 64%
    15:00 +26°C° 1,2 mm 3 m/s 759 mmHg 71%
    16:00 +25°C° 1,2 mm 3 m/s 758 mmHg 77%
    17:00 +24°C° 1,2 mm 2 m/s 758 mmHg 84%
    18:00 +23°C° 0,2 mm 2 m/s 758 mmHg 88%
    19:00 +21°C° 0,2 mm 2 m/s 758 mmHg 91%
    20:00 +20°C° 0,2 mm 2 m/s 758 mmHg 94%
    21:00 +20°C° 0,2 mm 2 m/s 758 mmHg 95%
    22:00 +19°C° 0,2 mm 2 m/s 758 mmHg 96%
    23:00 +19°C° 0,2 mm 2 m/s 757 mmHg 97%

    Après-demain, 19 Août, Dimanche

    Heure Température Précipitation Vent Pression Humidité
    00:00 +18°C° 0 mm 2 m/s 757 mmHg 97%
    01:00 +18°C° 0 mm 2 m/s 757 mmHg 97%
    02:00 +18°C° 0 mm 2 m/s 757 mmHg 97%
    03:00 +18°C° 0 mm 2 m/s 757 mmHg 97%
    04:00 +17°C° 0 mm 2 m/s 757 mmHg 97%
    05:00 +17°C° 0 mm 2 m/s 757 mmHg 97%
    06:00 +18°C° 0 mm 2 m/s 757 mmHg 95%
    07:00 +19°C° 0 mm 2 m/s 757 mmHg 92%
    08:00 +20°C° 0 mm 3 m/s 757 mmHg 89%
    09:00 +21°C° 0,2 mm 3 m/s 756 mmHg 83%
    10:00 +22°C° 0,2 mm 3 m/s 756 mmHg 76%
    11:00 +23°C° 0,2 mm 4 m/s 756 mmHg 70%
    12:00 +23°C° 0,1 mm 4 m/s 756 mmHg 65%
    13:00 +25°C° 0,1 mm 4 m/s 756 mmHg 60%
    14:00 +25°C° 0,1 mm 5 m/s 755 mmHg 55%
    15:00 +23°C° 0,2 mm 4 m/s 755 mmHg 62%
    16:00 +22°C° 0,2 mm 4 m/s 755 mmHg 70%
    17:00 +21°C° 0,2 mm 4 m/s 755 mmHg 77%
    18:00 +20°C° 0,3 mm 4 m/s 755 mmHg 83%
    19:00 +19°C° 0,3 mm 3 m/s 756 mmHg 89%
    20:00 +18°C° 0,3 mm 3 m/s 756 mmHg 95%
    21:00 +17°C° 0,1 mm 3 m/s 756 mmHg 95%
    22:00 +17°C° 0,1 mm 3 m/s 756 mmHg 95%
    23:00 +16°C° 0,1 mm 3 m/s 756 mmHg 95%

    20 Août, Lundi

    Heure Température Précipitation Vent Pression Humidité
    00:00 +14°C° 0 mm 3 m/s 756 mmHg 95%
    01:00 +14°C° 0 mm 3 m/s 757 mmHg 95%
    02:00 +13°C° 0 mm 3 m/s 757 mmHg 95%
    03:00 +12°C° 0 mm 3 m/s 757 mmHg 96%
    04:00 +12°C° 0 mm 3 m/s 757 mmHg 96%
    05:00 +13°C° 0 mm 2 m/s 757 mmHg 97%
    06:00 +14°C° 0 mm 2 m/s 758 mmHg 93%
    07:00 +15°C° 0 mm 2 m/s 758 mmHg 90%
    08:00 +16°C° 0 mm 2 m/s 758 mmHg 87%
    09:00 +18°C° 0 mm 2 m/s 759 mmHg 76%
    10:00 +19°C° 0 mm 2 m/s 759 mmHg 66%
    11:00 +21°C° 0 mm 2 m/s 759 mmHg 55%
    12:00 +21°C° 0 mm 2 m/s 759 mmHg 52%
    13:00 +23°C° 0 mm 2 m/s 759 mmHg 50%
    14:00 +23°C° 0 mm 2 m/s 759 mmHg 47%
    15:00 +23°C° 0 mm 2 m/s 759 mmHg 50%
    16:00 +22°C° 0 mm 1 m/s 759 mmHg 53%
    17:00 +22°C° 0 mm 1 m/s 759 mmHg 56%
    18:00 +20°C° 0 mm 1 m/s 759 mmHg 62%
    19:00 +19°C° 0 mm 1 m/s 759 mmHg 68%
    20:00 +16°C° 0 mm 1 m/s 759 mmHg 74%
    21:00 +16°C° 0 mm 1 m/s 759 mmHg 76%
    22:00 +15°C° 0 mm 1 m/s 759 mmHg 78%
    23:00 +15°C° 0 mm 1 m/s 759 mmHg 80%

    21 Août, Mardi

    Heure Température Précipitation Vent Pression Humidité
    00:00 +14°C° 0 mm 1 m/s 759 mmHg 82%
    01:00 +14°C° 0 mm 2 m/s 759 mmHg 84%
    02:00 +14°C° 0 mm 2 m/s 759 mmHg 86%
    03:00 +13°C° 0 mm 2 m/s 759 mmHg 88%
    04:00 +13°C° 0 mm 1 m/s 759 mmHg 91%
    05:00 +13°C° 0 mm 1 m/s 759 mmHg 93%
    06:00 +14°C° 0 mm 2 m/s 759 mmHg 87%
    07:00 +16°C° 0 mm 2 m/s 759 mmHg 80%
    08:00 +18°C° 0 mm 2 m/s 760 mmHg 74%
    09:00 +19°C° 0 mm 2 m/s 759 mmHg 68%
    10:00 +20°C° 0 mm 3 m/s 759 mmHg 62%
    11:00 +22°C° 0 mm 3 m/s 759 mmHg 55%
    12:00 +22°C° 0 mm 4 m/s 759 mmHg 54%
    13:00 +23°C° 0 mm 4 m/s 758 mmHg 52%
    14:00 +23°C° 0 mm 4 m/s 758 mmHg 50%
    15:00 +23°C° 0 mm 4 m/s 757 mmHg 52%
    16:00 +23°C° 0 mm 4 m/s 757 mmHg 54%
    17:00 +22°C° 0 mm 4 m/s 757 mmHg 56%
    18:00 +21°C° 0 mm 3 m/s 756 mmHg 63%
    19:00 +19°C° 0 mm 3 m/s 756 mmHg 70%
    20:00 +17°C° 0 mm 3 m/s 756 mmHg 77%
    21:00 +17°C° 0 mm 3 m/s 756 mmHg 79%
    22:00 +17°C° 0 mm 3 m/s 756 mmHg 81%
    23:00 +17°C° 0 mm 4 m/s 755 mmHg 84%

    22 Août, Mercredi

    Heure Température Précipitation Vent Pression Humidité
    00:00 +17°C° 0,1 mm 4 m/s 755 mmHg 87%
    01:00 +18°C° 0,1 mm 4 m/s 755 mmHg 90%
    02:00 +18°C° 0,1 mm 4 m/s 755 mmHg 93%
    03:00 +18°C° 0 mm 4 m/s 755 mmHg 93%
    04:00 +18°C° 0 mm 4 m/s 755 mmHg 93%
    05:00 +18°C° 0 mm 4 m/s 755 mmHg 93%
    06:00 +19°C° 0 mm 4 m/s 755 mmHg 92%
    07:00 +19°C° 0 mm 5 m/s 755 mmHg 90%
    08:00 +19°C° 0 mm 5 m/s 755 mmHg 89%
    09:00 +19°C° 0 mm 5 m/s 755 mmHg 86%
    10:00 +20°C° 0 mm 5 m/s 755 mmHg 83%
    11:00 +20°C° 0 mm 5 m/s 755 mmHg 81%
    12:00 +21°C° 0,1 mm 5 m/s 755 mmHg 76%
    13:00 +22°C° 0,1 mm 5 m/s 755 mmHg 71%
    14:00 +22°C° 0,1 mm 6 m/s 755 mmHg 66%
    15:00 +22°C° 0 mm 5 m/s 755 mmHg 65%
    16:00 +22°C° 0 mm 5 m/s 755 mmHg 63%
    17:00 +22°C° 0 mm 5 m/s 755 mmHg 61%
    18:00 +21°C° 0 mm 4 m/s 756 mmHg 68%
    19:00 +19°C° 0 mm 3 m/s 756 mmHg 74%
    20:00 +17°C° 0 mm 3 m/s 756 mmHg 81%
    21:00 +17°C° 0 mm 3 m/s 756 mmHg 84%
    22:00 +16°C° 0 mm 3 m/s 757 mmHg 88%
    23:00 +15°C° 0 mm 2 m/s 757 mmHg 91%
    Voir plus